Weather Roundup
Issued by NWS Chicago, IL

Home | Current Version | Previous Version | Text Only | Print | Product List | Glossary Off
Versions: 1 2 3 4 5 6 7 8 9 10 11 12 13 14 15 16 17 18 19 20 21 22 23 24 25 26 27 28 29 30 31 32 33 34 35 36 37 38 39 40 41 42 43 44 45 46 47 48 49 50

000
NZUS59 KLOT 231408
HRRLOT

CHICAGO AREA WEATHER ROUNDUP
NATIONAL WEATHER SERVICE CHICAGO/ROMEOVILLE IL
900 AM CDT TUE AUG 23 2016

NOTE: "FAIR" INDICATES FEW OR NO CLOUDS BELOW 12,000 FEET WITH NO
SIGNIFICANT WEATHER AND/OR OBSTRUCTIONS TO VISIBILITY.

* THESE STATIONS ARE NOT UNDER NWS QUALITY CONTROL. THEY ALSO MAY NOT
  REPORT WEATHER SUCH AS PRECIPITATION OR FOG.

ILZ005-006-012>014-019>023-231500-
NORTHEAST ILLINOIS

CITY           SKY/WX    TMP DP  RH WIND       PRES   REMARKS
OHARE          MOSUNNY   72  59  63 S14       30.21R
MIDWAY         MOSUNNY   73  58  59 S12       30.22R
AURORA         SUNNY     70  62  76 S10       30.22R
LANSING*       SUNNY     70  61  72 S7        30.24R
JOLIET*        SUNNY     71  64  77 S6        30.23R
WAUKEGAN       SUNNY     72  60  66 S12       30.20R
DUPAGE AIRPORT SUNNY     71  60  68 S12       30.21R
WHEELING       SUNNY     72  59  63 S10       30.22R
KANKAKEE*      SUNNY     70  63  77 S6        30.25R
MORRIS*        SUNNY     69  62  81 S6        30.22R
LEWIS AIRPORT* SUNNY     69  59  71 S7        30.23R
NORTHERLY ISL    N/A     71  57  61 S7          N/A
$$

WIZ051-052-058>065-066-070>072-231500-
SOUTHEAST WISCONSIN

CITY           SKY/WX    TMP DP  RH WIND       PRES   REMARKS
MILWAUKEE      MOSUNNY   73  59  61 SW12      30.19R
KENOSHA*       SUNNY     72  61  68 SW8       30.20R
RACINE*        SUNNY     72  60  66 SW9       30.21R
BURLINGTON     SUNNY     67  59  75 S8        30.19S
WAUKESHA       SUNNY     66  57  72 S7        30.19S
$$

INZ001>003-010>013-019-020-231500-
NORTHWEST INDIANA

CITY           SKY/WX    TMP DP  RH WIND       PRES   REMARKS
GARY*          MOSUNNY   72  61  68 S5        30.24R
MICHIGAN CITY* NOT AVBL
RENSSELAER*    NOT AVBL
VALPARAISO     SUNNY     68  61  78 S8        30.26R
$$

LMZ740>746-231500-
SOUTHERN LAKE MICHIGAN

STATION/POSITION TIME  SKY/WX   TEMP WIND        PRES    VSBY
                                AIR  DIR/SP/G
                 (UTC)          (F)  (DEG/KT/KT) (MB)    (MI)
HARRISON CRIB    1300            69  190/ 14/ 15   N/A
BURNHAM HARBOR   1400            72  190/  9/ 12   N/A
CALUMET HARBOR   1300            68  180/  7/ 11 1022.7R
BURNS HARBOR     1301            69  180/  5/ 13 1024.0R
MICHIGAN CITY    1300            67  140/  8/ 10   N/A
$$

ABBREVIATIONS USED IN REMARKS
   TC - TEMPERATURE IN CELSIUS
  WCI - WIND CHILL INDEX
   HX - HEAT INDEX
  VSB - VISIBILITY
$$




USA.gov is the U.S. government's official web portal to all federal, state and local government web resources and services.